User: anonymous   Login
Location: Melbourne
(37.8170°S, 144.9670°E)
Time: 00:54:01
(UTC+10:00)
Language:

Aureole 2 Rocket - Orbit

View from above orbital plane
View from above orbital plane
View from above satellite
View from above satellite

Ground track
Ground track

The orbit data is extracted from the following two-line orbital elements,

1 07004U 73107B   15142.87427803  .00007635  00000-0  16601-3 0  9999
2 07004 073.9438 241.6243 0250672 302.5396 194.7872 15.17547240121603
Epoch (UTC): 22 May 2015 20:58:57
Eccentricity: 0.0250672
inclination: 73.9438°
perigee height: 340 km
apogee height: 686 km
right ascension of ascending node: 241.6243°
argument of perigee: 302.5396°
revolutions per day: 15.17547240
mean anomaly at epoch: 194.7872°
orbit number at epoch: 12160

The dashed part of the orbit path shows where the satellite is in the earth's shadow,  

DLR